[[{"header":{"parameterUnit":"m.s-1","parameterCategory":1,"la1":30.2991,"la2":30.254,"lo1":-89.0895,"lo2":-89.0444,"dy":0.0017,"dx":0.0017,"nx":28,"ny":28,"refTime":"2024-08-13T03:00:00:Z","depth":0,"parameterNumber":2,"parameterNumberName":"U-component_of_WINDS"},"data":[0,0,0,0,0,0,0,0,0,0,0,0,0,0,0,0,0,0,0,0,0,0,0,0,0,0,0,0,0,0,0,0,0,0,0,0,0,0,0,0,0,0,0,0,0,0,0,0,0,0,0,0,0,0,0,0,0,0,3.973,3.9732,0,3.9862,3.9863,3.9865,3.9866,3.9865,3.9863,3.9862,3.9994,3.9999,4.0004,0,0,0,0,0,0,0,0,0,0,0,0,0,3.9479,3.9483,3.973,3.9732,3.9734,3.9862,3.9864,3.9865,3.9867,3.9865,3.9863,3.9861,3.9992,3.9998,4.0004,0,0,0,0,0,0,0,0,0,0,0,0,0,3.9597,3.9485,3.973,3.975,3.9753,3.9861,3.9864,3.9866,3.9867,3.9865,3.9862,3.986,3.999,3.9998,4.0005,4.0102,0,0,4.0028,4.0032,0,0,0,0,0,0,0,0,3.959,3.9606,3.9745,3.9749,3.9752,3.9845,3.9823,3.9945,3.9868,3.9824,3.9862,3.9859,3.9946,3.9957,3.9987,4.0108,4.0114,4.0029,4.0034,4.0037,4.0039,0,0,0,0,0,0,0,3.9582,3.96,3.9782,3.9747,3.9752,3.9752,3.9766,3.9846,3.9897,3.9827,3.9828,3.9844,3.9948,3.998,3.999,4.0116,4.0029,4.0035,4.004,4.0043,4.0322,4.0325,0,0,0,0,0,0,3.957,3.9594,3.9778,3.9786,3.9664,3.9758,3.9774,3.9818,3.9896,3.9906,3.9845,3.9843,3.9968,3.9982,3.9995,4.0113,4.0037,4.0044,4.0048,4.0319,4.0323,4.0326,0,0,0,0,0,0,3.9565,3.9587,3.9773,3.969,3.9714,3.9765,3.9815,3.9822,3.9854,3.991,3.9919,3.9869,3.9967,3.9984,4.0075,4.0117,4.0047,4.0054,4.0316,4.0321,4.0324,4.0349,0,0,0,0,0,0,3.9558,3.9585,3.9622,3.9691,3.9718,3.9851,3.9817,3.9826,3.9868,3.9866,3.9935,3.9944,3.9966,4.0064,4.0083,4.0126,4.006,4.0312,4.0318,4.0323,4.0344,4.0353,4.0361,0,0,0,0,0,3.9549,3.9623,3.9624,3.9646,3.9766,3.9854,3.9869,3.9894,3.9871,3.9909,3.9945,3.9942,4.0111,4.0073,4.0095,4.0141,4.031,4.0316,4.0323,4.0341,4.0352,4.0361,0,0,0,0,0,0,3.9556,3.9632,3.9634,3.9733,3.9787,3.9854,3.9901,3.9905,3.9966,3.9961,3.9989,4.0005,4.0095,4.0128,4.0085,4.0239,4.0207,4.0218,4.0214,4.0225,4.0233,4.0222,4.0066,0,0,0,0,0,3.9569,3.9635,3.9698,3.9779,3.9806,3.985,3.9888,3.9904,3.996,3.9982,4.0025,4.008,4.0145,4.0187,4.025,4.0351,4.0365,4.0393,4.0401,4.0408,4.0416,4.0471,4.0484,4.0347,4.0347,4.0347,0,0,3.9597,3.9647,3.9686,3.9782,3.9825,3.9891,3.9868,3.9939,3.9988,3.9993,4.0081,4.0115,4.0178,4.0273,4.0318,4.0303,4.0458,4.0416,4.0421,4.0426,4.0479,4.0492,4.0503,4.0352,4.0351,4.035,0,0,3.968,3.9726,3.9798,3.9843,3.991,3.9938,3.9956,4.0023,4.0046,4.0136,4.014,4.0199,4.0312,4.0356,4.0393,4.0497,4.0495,4.0517,4.0559,4.0612,4.0623,4.0632,4.0668,4.068,4.0526,4.0526,4.0526,0,3.9706,3.9806,3.9835,3.9906,3.9948,3.9957,4.003,4.0072,4.0156,4.0184,4.0168,4.0309,4.0352,4.0458,4.0484,4.0514,4.0534,4.0507,4.0619,4.0629,4.0639,4.0672,4.0686,4.0528,4.0527,4.0527,4.0527,0,3.9834,3.9904,3.9954,4.0036,4.0084,4.0156,4.0195,4.024,4.0252,4.0282,4.0373,4.0426,4.05,4.0527,4.0539,4.0635,4.0624,4.0613,4.0581,4.0653,4.0685,4.0699,4.053,4.053,4.0529,4.0529,0,0,3.9921,4.002,4.0038,4.0075,4.0151,4.0205,4.0279,4.0352,4.039,4.0448,4.0509,4.0605,4.0596,4.0638,4.0656,4.0703,4.078,4.0687,4.0688,4.07,4.0888,4.0894,4.0908,4.0782,4.0784,4.0786,4.0882,0,4.0011,4.0141,4.017,4.0282,4.0346,4.0358,4.0421,4.0474,4.0506,4.0565,4.0599,4.0666,4.065,4.0676,4.0723,4.0761,4.0818,4.0755,4.0837,4.0839,4.0817,4.0925,4.0931,4.1019,4.0895,4.0897,4.0899,0,4.0133,4.0195,4.0313,4.0381,4.041,4.0466,4.0536,4.0593,4.0654,4.0674,4.0722,4.0735,4.0811,4.0779,4.0883,4.084,4.0876,4.09,4.0904,4.0909,4.0871,4.0932,4.1048,4.106,4.0919,4.0918,4.0916,0,4.0182,4.0296,4.0382,4.0414,4.0496,4.0535,4.0571,4.063,4.0673,4.0734,4.0762,4.0832,4.0869,4.0923,4.0954,4.0928,4.1056,4.1026,4.1073,4.1072,4.1096,4.1094,4.1217,4.1125,4.1124,4.1124,4.1124,0,4.0278,4.0349,4.0405,4.0457,4.0538,4.0571,4.065,4.0685,4.0738,4.0797,4.0812,4.0867,4.0907,4.0967,4.0993,4.1075,4.1092,4.1109,4.1115,4.1106,4.1104,4.1128,4.1121,4.1128,4.1127,4.1126,4.1126,0,4.0345,4.0386,4.0479,4.0551,4.057,4.0626,4.0687,4.0738,4.0771,4.0845,4.0865,4.0916,4.0988,4.1026,4.1116,4.1134,4.1225,4.1228,4.1204,4.1206,4.125,4.1244,4.139,4.141,4.1307,4.1308,4.1309,0,4.0401,4.0457,4.0535,4.0576,4.0613,4.0679,4.0723,4.0759,4.0805,4.0879,4.0921,4.0995,4.1055,4.117,4.1215,4.1284,4.1287,4.1334,4.1297,4.1287,4.1285,4.128,4.1285,4.1339,4.134,4.1341,4.1341,0,4.0497,4.0515,4.0578,4.065,4.0702,4.076,4.0817,4.085,4.0895,4.0945,4.102,4.1067,4.116,4.1232,4.1305,4.1342,4.1349,4.1353,4.1367,4.1357,4.134,4.1348,4.1219,4.1348,4.1348,4.1347,4.1347,4.1347,4.0559,4.0609,4.0671,4.0742,4.0789,4.0842,4.0894,4.0934,4.0997,4.1076,4.1094,4.1173,4.1234,4.1333,4.1372,4.1433,4.1424,4.1444,4.1449,4.1453,4.1454,4.1333,4.1447,4.1447,4.1447,4.1447,4.1447,0,4.0653,4.0695,4.076,4.0839,4.0895,4.09,4.0963,4.1009,4.1078,4.1135,4.1195,4.1281,4.1352,4.1404,4.1476,4.1515,4.152,4.1533,4.1528,4.1536,4.1459,4.1439,4.1527,4.1527,4.1527,4.1527,4.1527,4.1527,4.0708,4.0792,4.0818,4.0926,4.0967,4.1045,4.1081,4.113,4.1175,4.1271,4.133,4.1364,4.1419,4.1496,4.1561,4.1575,4.1599,4.1611,4.1624,4.1551,4.1542,4.1534,4.1514,4.1617,4.1617,4.1696,4.1697,4.1697]},{"header":{"parameterUnit":"m.s-1","parameterCategory":1,"la1":30.2991,"la2":30.254,"lo1":-89.0895,"lo2":-89.0444,"dy":0.0017,"dx":0.0017,"nx":28,"ny":28,"refTime":"2024-08-13T03:00:00:Z","depth":0,"parameterNumber":3,"parameterNumberName":"V-component_of_WINDS"},"data":[0,0,0,0,0,0,0,0,0,0,0,0,0,0,0,0,0,0,0,0,0,0,0,0,0,0,0,0,0,0,0,0,0,0,0,0,0,0,0,0,0,0,0,0,0,0,0,0,0,0,0,0,0,0,0,0,0,0,1.6814,1.6816,0,1.702,1.7022,1.7025,1.715,1.7151,1.7152,1.7152,1.7362,1.7366,1.7371,0,0,0,0,0,0,0,0,0,0,0,0,0,1.6528,1.6533,1.6813,1.6816,1.6819,1.7019,1.7022,1.7025,1.715,1.7151,1.7152,1.7153,1.736,1.7366,1.7372,0,0,0,0,0,0,0,0,0,0,0,0,0,1.6685,1.6535,1.6813,1.6905,1.6916,1.7019,1.7022,1.7026,1.715,1.7151,1.7152,1.7153,1.7358,1.7365,1.7373,1.7399,0,0,1.7395,1.7399,0,0,0,0,0,0,0,0,1.6676,1.6695,1.6889,1.6899,1.6911,1.706,1.6999,1.7151,1.715,1.7061,1.7152,1.7153,1.726,1.7276,1.7313,1.7409,1.7418,1.7396,1.7401,1.7404,1.7406,0,0,0,0,0,0,0,1.6665,1.6687,1.6895,1.6892,1.6905,1.6937,1.696,1.7028,1.7153,1.7069,1.7078,1.7101,1.7267,1.7305,1.7318,1.7421,1.7396,1.7402,1.7407,1.741,1.7554,1.7553,0,0,0,0,0,0,1.664,1.6677,1.6889,1.6901,1.6793,1.6941,1.6967,1.7011,1.7152,1.7175,1.71,1.7106,1.7292,1.7309,1.7326,1.7369,1.7404,1.7411,1.7415,1.7554,1.7553,1.7553,0,0,0,0,0,0,1.6633,1.6657,1.688,1.6792,1.6823,1.6945,1.6994,1.7015,1.7054,1.7176,1.7199,1.7117,1.7293,1.7316,1.7381,1.7378,1.7414,1.7421,1.7555,1.7554,1.7553,1.7452,0,0,0,0,0,0,1.6624,1.6654,1.6665,1.6791,1.6827,1.6931,1.6993,1.7018,1.7066,1.7076,1.7198,1.7219,1.7296,1.7369,1.7388,1.7389,1.7427,1.7556,1.7554,1.7553,1.7456,1.7448,1.7441,0,0,0,0,0,1.6614,1.6627,1.6665,1.669,1.6844,1.6931,1.6951,1.704,1.7065,1.7078,1.7157,1.7215,1.7375,1.7375,1.7398,1.74,1.7556,1.7555,1.7553,1.746,1.745,1.7441,0,0,0,0,0,0,1.6496,1.6646,1.6689,1.6744,1.6824,1.6952,1.697,1.7026,1.71,1.7106,1.7213,1.7239,1.7294,1.7354,1.7351,1.7435,1.7472,1.7475,1.7394,1.7385,1.7377,1.7361,1.7433,0,0,0,0,0,1.6477,1.6535,1.6663,1.6699,1.6737,1.6846,1.6888,1.695,1.7036,1.7071,1.7155,1.7236,1.7306,1.7349,1.7419,1.7466,1.7495,1.7479,1.7471,1.7464,1.7465,1.7497,1.7492,1.7548,1.7548,1.7548,0,0,1.6437,1.6526,1.6556,1.6678,1.6747,1.6806,1.6874,1.6932,1.6977,1.7079,1.7147,1.7211,1.731,1.7367,1.7396,1.7418,1.7457,1.7462,1.7456,1.7461,1.7495,1.7489,1.7484,1.7547,1.7547,1.7547,0,0,1.6395,1.6467,1.6507,1.6576,1.668,1.6753,1.6763,1.6883,1.693,1.7,1.7079,1.7134,1.725,1.7318,1.7367,1.7354,1.741,1.7374,1.7332,1.7362,1.7357,1.7354,1.735,1.7347,1.7374,1.7374,1.7374,0,1.6332,1.6423,1.652,1.6575,1.6627,1.6724,1.6765,1.6827,1.6948,1.6982,1.7005,1.7156,1.7228,1.7304,1.7301,1.7337,1.7352,1.736,1.735,1.7348,1.7346,1.7344,1.7342,1.7369,1.737,1.737,1.7371,0,1.6342,1.6404,1.6423,1.654,1.6594,1.6642,1.6746,1.679,1.6848,1.6918,1.6989,1.7081,1.7172,1.7195,1.7251,1.7279,1.729,1.733,1.737,1.7334,1.7334,1.7334,1.7362,1.7364,1.7365,1.7367,0,0,1.6228,1.6401,1.6406,1.6461,1.6585,1.6635,1.6688,1.6779,1.6815,1.6896,1.6944,1.7041,1.7081,1.7137,1.7202,1.7228,1.7214,1.7266,1.727,1.7254,1.7251,1.722,1.7217,1.7252,1.7252,1.7252,1.7243,0,1.6205,1.6305,1.6395,1.6462,1.6522,1.6617,1.6663,1.6745,1.6813,1.6874,1.6949,1.7017,1.7064,1.7098,1.7128,1.7209,1.7214,1.7211,1.7297,1.7299,1.727,1.7217,1.7184,1.7171,1.7244,1.7244,1.7244,0,1.6189,1.6269,1.6342,1.6463,1.6492,1.6532,1.6624,1.6681,1.6776,1.6824,1.6888,1.6957,1.7018,1.7053,1.7139,1.7134,1.7176,1.7221,1.7222,1.7234,1.7269,1.7227,1.7169,1.7166,1.7244,1.7244,1.7244,0,1.61,1.6226,1.6287,1.6331,1.6473,1.6499,1.656,1.6656,1.6706,1.6786,1.682,1.6905,1.6952,1.7017,1.7109,1.7125,1.7186,1.7227,1.7228,1.7225,1.7236,1.7234,1.7183,1.7261,1.7261,1.7261,1.7262,0,1.6064,1.6106,1.6249,1.6286,1.6336,1.644,1.6487,1.6556,1.6641,1.6694,1.6781,1.6829,1.6946,1.7008,1.708,1.7142,1.7162,1.7203,1.7221,1.7195,1.719,1.7223,1.7226,1.7261,1.7261,1.7261,1.7261,0,1.5972,1.607,1.6143,1.6273,1.6307,1.6338,1.6449,1.649,1.6564,1.663,1.6652,1.6768,1.6846,1.6944,1.7052,1.7101,1.7155,1.7183,1.7123,1.7134,1.7129,1.7128,1.7098,1.71,1.7176,1.7175,1.7174,0,1.5942,1.5977,1.6112,1.6154,1.6212,1.6279,1.6331,1.6436,1.6486,1.6599,1.6626,1.6711,1.6784,1.6905,1.6999,1.7083,1.7114,1.7098,1.7127,1.71,1.7115,1.7112,1.7116,1.709,1.7088,1.7087,1.7086,0,1.5879,1.5927,1.5999,1.6089,1.6149,1.6224,1.6304,1.6333,1.6454,1.6507,1.6589,1.6646,1.6758,1.6842,1.6939,1.7002,1.7064,1.7077,1.7082,1.7055,1.7019,1.704,1.7103,1.7077,1.7078,1.7078,1.7079,1.7079,1.5819,1.5855,1.5956,1.6034,1.6105,1.6178,1.6223,1.6305,1.6375,1.6475,1.6533,1.6613,1.671,1.6847,1.6907,1.6972,1.6995,1.7001,1.7003,1.7003,1.6996,1.7009,1.699,1.699,1.6991,1.6991,1.6991,0,1.5761,1.5832,1.5903,1.6012,1.6074,1.613,1.6221,1.6269,1.6339,1.6424,1.6496,1.6591,1.6673,1.6775,1.6865,1.6897,1.6928,1.6917,1.6915,1.6929,1.6969,1.6957,1.689,1.689,1.689,1.689,1.689,1.689,1.5738,1.5803,1.5863,1.5964,1.6035,1.6116,1.6163,1.6231,1.6301,1.6403,1.6473,1.6539,1.6632,1.673,1.6808,1.6836,1.6865,1.6845,1.6882,1.6917,1.6926,1.6934,1.6923,1.6851,1.6851,1.6837,1.6837,1.6836]}]]